Weather History for Destin, FL

Change the Weather History Date:

Wednesday, September 11, 2013

  Actual Average Record
Temperature  
Mean Temperature 84 °F -  
Max Temperature 93 °F 85 °F 93 °F (2013)
Min Temperature 77 °F 71 °F 70 °F (1997)
Cooling Degree Days 19    
Growing Degree Days 34 (Base 50)    
Moisture  
Dew Point 69 °F    
Average Humidity 64    
Maximum Humidity 79    
Minimum Humidity 44    
Precipitation  
Precipitation 0.00 in - - ()
Sea Level Pressure  
Sea Level Pressure 30.08 in    
Wind  
Wind Speed 5 mph (ENE)    
Max Wind Speed 12 mph    
Max Gust Speed 17 mph    
Visibility 10 miles    
Events      
Averages and records for this station are not official NWS values.
T = Trace of Precipitation, MM = Missing Value Source: NWS Daily Summary

Daily Weather History Graph

Daily Weather History Graph

Search for Another Location

Airport:

Trip Planner

Search our weather history database for the weather conditions in past years. The results will help you decide how hot, cold, wet, or windy it might be!

Date:

Astronomy

Sep. 11, 2013 Rise Set
Actual Time 6:28 AM CDT 6:56 PM CDT
Civil Twilight 6:04 AM CDT 7:20 PM CDT
Nautical Twilight 5:35 AM CDT 7:48 PM CDT
Astronomical Twilight 5:07 AM CDT 8:17 PM CDT
Moon 12:29 PM CDT (9/11) 11:18 PM CDT (9/11)
Length of Visible Light 13h 16m
Length of Day
12h 27m
Waxing Crescent, 39% of the Moon is Illuminated
Sep 11
Waxing Crescent
Sep 12
First Quarter
Sep 19
Full
Sep 26
Last Quarter
Oct 4
New

Hourly Weather History & Observations

Time (CDT) Temp. Heat Index Dew Point Humidity Pressure Visibility Wind Dir Wind Speed Gust Speed Precip Events Conditions
12:53 AM 79.0 °F - 71.1 °F 77% 30.09 in 10.0 mi Calm Calm - N/A   Clear
1:53 AM 79.0 °F - 71.1 °F 77% 30.08 in 10.0 mi NE 5.8 mph - N/A   Partly Cloudy
2:53 AM 79.0 °F - 70.0 °F 74% 30.07 in 10.0 mi East 4.6 mph - N/A   Clear
3:53 AM 78.1 °F - 70.0 °F 76% 30.08 in 10.0 mi ENE 5.8 mph - N/A   Clear
4:53 AM 77.0 °F - 70.0 °F 79% 30.09 in 10.0 mi ENE 5.8 mph - N/A   Clear
5:53 AM 77.0 °F - 70.0 °F 79% 30.10 in 10.0 mi ENE 6.9 mph - N/A   Clear
6:53 AM 77.0 °F - 70.0 °F 79% 30.12 in 10.0 mi East 9.2 mph - N/A   Clear
7:53 AM 78.1 °F - 70.0 °F 76% 30.13 in 10.0 mi East 11.5 mph - N/A   Clear
8:53 AM 81.0 °F 84.9 °F 71.1 °F 72% 30.13 in 10.0 mi ENE 9.2 mph - N/A   Clear
9:53 AM 82.9 °F 87.5 °F 71.1 °F 67% 30.14 in 10.0 mi ENE 10.4 mph - N/A   Clear
10:53 AM 84.9 °F 90.1 °F 71.1 °F 63% 30.13 in 10.0 mi East 9.2 mph - N/A   Clear
11:53 AM 88.0 °F 92.1 °F 69.1 °F 53% 30.12 in 10.0 mi East 9.2 mph - N/A   Clear
12:53 PM 90.0 °F 93.6 °F 68.0 °F 48% 30.11 in 10.0 mi East 10.4 mph - N/A   Clear
1:53 PM 91.0 °F 94.3 °F 66.9 °F 45% 30.09 in 10.0 mi Variable 6.9 mph 16.1 mph N/A   Clear
2:53 PM 91.0 °F 94.3 °F 66.9 °F 45% 30.07 in 10.0 mi East 8.1 mph - N/A   Partly Cloudy
3:53 PM 91.0 °F 94.3 °F 66.9 °F 45% 30.05 in 10.0 mi Variable 5.8 mph 17.3 mph N/A   Clear
4:53 PM 91.0 °F 93.8 °F 66.0 °F 44% 30.04 in 10.0 mi ENE 6.9 mph - N/A   Clear
5:53 PM 89.1 °F 91.3 °F 66.0 °F 46% 30.04 in 10.0 mi East 5.8 mph - N/A   Clear
6:53 PM 87.1 °F 89.9 °F 66.9 °F 51% 30.03 in 10.0 mi Calm Calm - N/A   Clear
7:53 PM 84.0 °F 87.0 °F 68.0 °F 58% 30.04 in 10.0 mi Calm Calm - N/A   Scattered Clouds
8:53 PM 82.0 °F 85.5 °F 69.1 °F 65% 30.05 in 10.0 mi Calm Calm - N/A   Clear
9:53 PM 82.0 °F 85.9 °F 70.0 °F 67% 30.06 in 10.0 mi NE 3.5 mph - N/A   Clear
10:53 PM 82.0 °F 86.3 °F 71.1 °F 69% 30.06 in 10.0 mi NE 4.6 mph - N/A   Mostly Cloudy
11:53 PM 80.1 °F 84.2 °F 73.0 °F 79% 30.05 in 10.0 mi NE 4.6 mph - N/A   Partly Cloudy